C/2000 J1 ( Ferris )

Japanese version
Home page
Updated on June 28, 2000

---------------------------------------------------------------------

* Profile

Discovery Date May 4, 2000
Magnitude 19.0 mag
Discoverer W. D. Ferris (LONEOS)

* Orbital Elements

   Improved parabolic orbital elements by K. Muraoka,
  from 20 observations  2000 May 4 to 9, m.e. = +/- 0".44.

          T  =  2000 May  12.776  TT
       Peri. =  147.630
       Node  =   28.225   (2000.0)
       Incl. =   99.031
          q  =    2.55276  AU
          e  =    1.0

* Finding Charts

* Magnitudes Graph

        m1 = 14.0 + 5 log d + 10.0 log r

---------------------------------------------------------------------

The orbital elements are calculated by Kenji Muraoka.
The charts are made with StellaNavigator Ver.2.0 for Windows (AstroArts / ASCII).
The magnitudes graphs are made with Comet for Windows.

---------------------------------------------------------------------

Copyright(C) Seiichi Yoshida (comet@aerith.net). All rights reserved.